GFSGBSN_925_temp_000.txt.gz
Temp
8 8 8 8 8 8 8 8 8 8 8 9 12 14 15 15 16 18 17 17 18 20 22 21 22 23 19 28 32 30 29 29 27 28 31 34 34 35 36 38 38 37 38 39 39 37 38
9 8 8 8 8 8 8 8 8 8 8 8 8 11 14 16 17 17 17 17 19 20 21 21 17 20 21 29 31 28 27 27 29 29 32 34 35 37 37 38 38 39 38 38 39 38 37
8 8 8 8 8 8 8 7 8 7 8 8 8 9 12 14 16 17 18 19 19 21 21 21 12 15 24 31 30 28 28 30 30 31 34 33 35 36 37 37 39 38 37 36 37 37 36
8 8 8 8 8 8 8 7 7 7 7 8 10 11 12 13 14 17 19 20 21 20 19 12 14 17 28 29 28 28 29 30 29 30 32 33 34 35 37 38 38 37 38 37 37 36 36
8 8 8 8 8 8 8 7 7 7 7 7 10 12 12 13 15 16 19 20 19 16 13 13 16 21 31 27 29 31 30 32 31 31 31 32 34 35 36 36 37 38 37 37 36 37 35
8 8 8 8 8 8 8 7 7 7 7 8 8 11 12 13 15 17 19 18 15 12 13 14 17 23 29 33 32 31 30 32 33 32 32 33 33 35 36 37 36 37 37 38 38 36 36
7 8 7 7 7 8 7 7 7 8 8 9 11 11 12 13 15 17 18 18 23 23 20 29 32 31 33 32 30 33 31 32 34 33 33 34 33 34 36 37 38 39 38 38 39 38 36
8 8 7 8 8 8 7 8 7 8 8 9 10 11 12 15 15 16 15 23 23 21 25 30 30 30 30 31 30 33 32 33 33 32 34 33 33 36 37 37 37 38 38 38 39 38 37
8 8 8 8 8 8 8 8 8 8 8 9 11 10 11 15 16 15 17 21 19 20 25 30 30 30 31 30 30 32 33 33 33 33 34 33 35 36 36 36 36 37 37 38 38 37 37
8 8 8 8 8 7 8 7 7 8 8 8 10 10 11 13 16 16 21 19 18 19 27 32 30 31 29 31 30 33 34 33 33 33 34 34 36 35 34 35 37 36 39 38 38 37 36
8 8 8 8 8 8 8 8 8 8 8 8 10 12 10 9 12 18 19 18 18 21 28 31 31 31 32 31 33 32 33 34 33 33 34 33 34 34 34 35 37 37 39 38 38 37 37
8 8 8 8 8 7 8 8 8 8 8 8 8 10 9 13 12 15 16 17 19 26 27 31 32 31 31 32 33 31 32 34 35 34 34 34 35 35 35 36 37 38 37 37 38 37 36
8 8 8 8 8 7 7 7 8 8 8 8 9 10 10 10 19 16 16 22 26 27 30 31 31 32 33 33 33 32 31 31 32 31 31 33 34 35 36 35 36 36 36 34 34 35 35
8 8 8 8 8 7 7 7 7 7 8 8 9 11 12 12 13 13 17 24 25 29 30 31 31 32 31 33 33 33 32 32 33 33 34 32 31 34 35 35 36 35 36 36 33 35 35
8 8 8 7 8 7 7 7 7 7 7 8 9 13 14 15 12 14 21 24 27 28 30 31 32 31 32 33 32 32 33 33 34 34 32 33 32 35 36 36 37 36 36 38 37 37 37
8 8 8 7 7 7 7 7 7 7 7 8 8 13 16 15 13 16 22 23 28 29 30 31 30 32 31 33 31 32 33 34 34 34 35 34 32 35 35 36 37 37 37 35 37 34 34
8 8 8 8 8 7 8 8 8 7 7 8 11 16 16 13 14 19 22 24 26 28 28 29 30 30 30 31 31 32 33 34 34 34 34 34 33 34 35 34 35 36 36 36 37 37 35
7 7 7 7 7 7 7 7 7 7 7 9 12 16 15 14 19 22 22 25 23 26 28 28 29 30 30 30 30 31 31 33 34 35 33 34 34 32 33 36 36 37 36 36 35 34 36
7 7 7 7 7 7 7 7 7 7 7 9 13 15 17 15 18 21 23 23 24 24 26 27 28 28 30 29 29 30 31 33 33 33 33 34 33 32 32 35 35 35 36 37 37 37 36
6 7 7 7 7 6 7 7 7 7 7 8 12 16 19 18 19 18 20 19 21 24 24 27 28 29 28 29 30 29 30 32 32 33 26 32 34 32 33 33 35 34 35 36 36 37 35
6 6 6 6 6 6 7 7 7 7 7 8 13 15 14 17 19 17 17 18 19 21 23 25 25 26 28 27 28 28 29 31 31 29 30 31 31 33 33 34 35 35 35 35 35 36 36
6 6 6 6 6 6 6 7 7 7 6 7 10 12 12 12 13 15 16 17 18 20 21 22 23 26 27 27 28 28 29 29 30 32 31 32 30 31 32 34 34 34 35 35 35 36 36
6 6 6 6 6 6 6 7 7 6 6 7 10 10 10 12 13 14 16 17 17 18 19 21 21 21 22 25 26 27 28 28 29 30 30 30 31 30 31 34 33 32 34 35 35 36 36
6 6 6 6 6 6 6 6 7 6 6 6 8 9 7 11 14 13 15 15 15 16 16 18 19 18 21 22 22 25 26 27 27 28 29 28 29 30 31 31 29 34 36 36 36 36 37
6 6 6 6 6 6 6 6 6 6 6 5 6 6 6 8 12 13 13 14 15 15 15 15 17 19 20 20 21 23 25 26 27 28 29 29 29 30 29 30 32 33 34 34 34 35 37
5 6 6 6 6 6 6 6 6 6 6 5 6 6 6 7 12 13 12 12 13 14 16 16 16 18 19 20 23 23 25 27 27 28 30 30 29 29 30 29 29 30 28 28 29 31 36
5 5 6 6 6 6 6 6 6 6 6 5 6 6 6 7 11 12 12 13 15 15 16 16 13 16 18 20 22 24 26 29 28 28 27 28 28 29 29 28 29 27 27 29 28 32 37
5 5 6 5 6 6 6 6 6 6 6 6 6 6 6 6 8 11 13 12 11 12 14 14 14 15 16 17 21 25 27 28 29 29 27 27 28 29 28 27 27 25 29 27 27 29 30
5 5 5 6 6 6 6 6 6 6 6 6 6 7 6 6 8 10 10 11 11 13 13 13 13 13 15 16 20 21 23 26 28 28 28 28 29 29 28 29 24 25 23 26 28 29 30

GFSGBSN_925_temp_003.txt.gz
Temp
9 8 8 8 8 8 8 8 8 8 8 8 8 11 13 14 15 17 17 17 18 20 21 22 22 23 19 30 33 30 30 29 28 30 33 36 36 37 37 39 40 39 40 40 40 40 40
8 8 8 8 8 8 8 8 8 8 8 8 8 12 13 13 15 16 17 17 18 20 22 22 23 21 21 30 34 32 31 30 32 32 34 36 37 38 38 39 40 41 40 40 40 40 40
8 8 8 8 8 8 8 8 8 8 8 8 10 12 12 13 15 16 17 18 19 21 22 22 21 16 27 32 34 33 32 33 33 33 36 35 37 38 39 39 41 40 39 40 40 40 39
8 8 8 8 8 8 8 8 7 7 7 8 12 12 12 12 14 16 17 19 20 21 20 19 19 19 28 34 33 33 32 33 33 34 35 36 36 38 38 40 40 39 39 39 40 40 40
8 8 8 8 8 8 8 8 7 8 9 9 9 12 12 14 16 16 17 19 19 18 17 17 17 24 31 31 32 33 33 34 34 34 34 35 36 36 37 37 38 39 38 39 39 40 39
8 8 8 8 8 8 8 8 8 8 8 8 9 12 11 14 16 17 19 18 15 14 14 17 21 26 31 34 35 34 34 34 35 35 35 35 36 36 37 38 36 37 38 40 39 40 39
8 8 8 8 8 8 8 8 8 8 9 9 9 10 13 14 16 16 18 22 24 24 23 31 33 34 35 35 34 34 34 35 36 35 34 35 35 35 37 38 39 40 40 40 41 41 39
9 8 8 8 8 8 8 8 8 8 8 9 9 9 12 13 16 17 16 27 27 25 27 32 33 34 34 35 34 35 35 34 35 34 35 36 35 37 38 39 38 39 39 40 41 40 40
9 9 9 9 8 8 8 8 8 8 8 8 9 9 10 14 16 17 22 24 24 25 28 32 35 34 35 35 34 35 36 35 35 34 35 36 37 38 38 38 38 39 39 40 40 39 39
9 9 9 8 9 8 8 8 8 8 8 8 9 9 9 12 18 20 25 23 23 24 28 33 34 34 35 35 34 36 37 36 35 35 36 36 39 38 37 37 38 38 40 40 40 38 37
9 9 9 9 9 8 8 8 8 8 8 8 8 9 9 11 13 20 23 23 23 25 29 36 35 35 36 35 36 35 36 36 35 35 36 36 37 37 37 38 39 38 40 40 40 40 35
9 9 9 9 8 8 8 8 8 8 8 8 8 9 9 14 15 18 20 21 24 27 29 34 35 33 34 35 36 35 35 37 37 36 36 37 39 38 38 39 39 39 39 39 40 39 38
8 8 8 8 8 8 8 8 8 8 8 8 9 9 10 10 20 21 21 24 26 28 34 34 34 35 35 35 35 34 34 34 34 33 34 35 37 38 39 37 38 38 38 36 36 37 37
8 8 8 8 8 8 8 8 8 8 8 8 9 11 13 15 17 18 19 24 25 31 32 36 36 35 35 36 36 35 34 34 35 35 36 34 34 37 38 37 37 37 38 37 34 36 38
8 8 8 8 8 8 8 8 7 8 8 8 9 15 18 20 18 18 22 24 27 30 34 34 35 34 35 36 36 35 35 35 36 36 35 36 35 38 38 38 38 38 38 39 38 39 38
8 8 8 8 8 8 8 8 7 7 7 9 9 14 19 20 18 18 22 23 28 31 33 33 32 34 34 35 35 35 35 36 36 37 37 36 35 37 38 38 38 38 39 38 39 35 36
7 7 8 7 8 8 8 8 8 7 7 9 11 19 20 19 18 20 22 24 26 29 31 31 32 33 34 35 35 35 34 36 37 37 37 36 36 36 37 36 36 36 37 38 38 38 36
7 7 7 7 7 7 8 7 7 7 7 10 14 18 20 19 20 22 22 24 24 28 30 30 30 31 32 34 34 34 34 36 38 37 36 36 36 35 36 38 38 38 37 38 38 36 38
6 6 7 7 7 7 7 7 7 7 7 10 15 18 19 20 19 21 23 24 26 26 28 28 29 30 31 31 31 33 34 36 36 36 36 36 35 34 34 37 38 36 37 38 39 39 37
6 6 6 6 6 6 7 7 7 7 7 8 13 17 21 21 21 21 21 23 23 26 26 26 27 28 29 29 31 31 32 35 36 35 29 34 35 34 35 35 37 35 36 37 38 38 37
6 6 6 6 6 6 6 7 7 7 7 7 12 15 18 18 20 16 17 16 19 19 23 25 25 26 27 28 29 30 32 33 34 33 32 34 33 35 35 36 37 37 37 37 37 37 37
6 6 6 6 6 6 6 7 7 7 6 6 10 13 15 15 16 16 15 16 18 19 19 19 22 25 27 26 28 29 31 32 32 34 33 34 32 34 34 36 36 36 37 37 37 37 37
6 6 6 6 6 6 6 7 7 7 6 6 8 10 12 13 15 17 17 16 18 20 19 18 19 18 22 25 24 25 27 32 32 32 32 32 33 32 32 34 35 34 35 36 37 38 37
6 6 6 6 6 6 6 6 6 6 6 6 6 7 9 13 14 15 15 17 16 17 17 19 18 16 19 22 23 25 27 28 28 30 32 31 31 32 32 33 31 35 36 37 36 37 38
5 6 6 6 6 6 6 6 6 6 6 6 6 5 6 9 13 14 15 15 16 17 17 17 17 17 18 20 21 23 24 25 26 28 29 31 31 30 31 32 30 32 33 33 32 34 38
5 6 6 6 6 6 6 6 6 6 7 6 6 6 6 7 11 12 11 13 14 16 18 19 19 17 16 18 19 21 23 25 25 27 30 30 30 30 31 30 31 34 32 33 33 32 36
5 5 5 6 6 6 6 6 6 6 7 6 6 6 6 6 8 11 12 10 13 12 14 14 16 16 17 17 19 21 23 26 26 26 27 28 29 28 29 30 32 31 32 32 30 32 31
5 5 5 6 6 6 7 6 6 6 7 6 7 7 6 7 8 11 13 13 13 15 13 11 18 15 17 16 18 22 23 26 27 29 29 28 29 29 30 29 29 30 32 30 29 30 32
5 5 6 5 6 7 7 6 7 6 6 6 6 7 6 6 9 10 12 13 14 15 16 16 15 13 17 15 15 16 18 22 26 27 31 30 31 30 31 31 28 29 29 29 30 31 31

GFSGBSN_925_temp_006.txt.gz
Temp
9 9 9 9 9 8 8 8 8 8 8 8 9 12 13 13 15 16 17 17 18 19 20 22 23 22 22 28 31 32 32 32 31 30 33 35 37 37 37 38 39 39 39 40 41 41 40
8 8 8 8 8 8 8 8 8 8 8 8 9 11 13 13 15 16 17 17 18 19 21 22 23 20 21 28 33 33 31 30 32 32 33 35 37 38 38 38 39 41 41 41 41 41 40
8 8 8 8 8 9 9 8 8 8 9 9 9 9 12 14 14 15 17 18 19 20 22 21 21 16 25 30 34 35 33 33 33 34 35 36 37 38 38 38 40 40 40 41 40 41 40
9 9 8 8 8 8 9 9 8 9 9 10 10 11 13 14 14 14 16 19 21 22 20 20 17 18 26 32 33 33 34 34 35 35 35 36 37 38 38 39 39 39 40 38 41 41 40
9 9 9 8 8 8 9 8 8 8 8 9 9 10 12 14 14 16 17 20 20 19 19 17 16 22 30 33 33 35 35 35 35 35 36 36 38 37 37 37 37 38 37 38 40 41 40
9 9 9 9 9 9 8 8 8 8 9 9 9 9 10 13 14 16 18 22 18 16 18 17 21 26 30 34 35 35 35 35 36 36 36 36 36 36 36 36 34 36 38 39 39 40 40
9 9 9 9 9 9 8 8 8 8 8 9 9 9 10 12 15 16 16 20 25 23 22 29 31 32 36 35 36 36 36 36 37 36 34 35 34 34 36 36 37 38 39 39 40 40 40
9 9 9 9 9 9 9 9 8 8 8 9 9 9 10 14 17 17 16 25 29 27 27 30 31 32 34 37 36 36 36 35 35 34 35 35 34 36 37 38 37 38 38 39 41 40 40
9 9 9 9 9 9 9 9 9 9 9 9 9 9 10 14 17 19 22 25 27 27 27 30 33 33 34 35 35 36 37 36 35 34 35 34 36 37 38 37 37 38 38 39 40 41 41
9 9 9 9 9 9 9 9 9 9 9 9 9 9 9 10 19 18 22 26 26 27 26 31 35 35 35 36 35 37 38 36 35 35 35 36 37 38 37 37 38 37 39 40 40 39 37
9 9 9 9 9 9 9 9 9 8 8 8 9 9 9 10 11 17 24 24 25 26 27 37 37 38 38 36 37 37 37 37 35 35 36 35 36 37 37 37 39 38 40 40 40 39 38
9 9 9 9 9 9 9 9 8 8 8 8 8 9 9 13 15 17 20 23 25 26 27 36 36 35 35 36 37 38 36 37 37 35 36 36 39 38 38 39 39 40 39 39 40 39 37
8 8 8 9 9 9 8 8 8 8 8 8 9 10 9 9 16 21 21 25 25 26 34 35 36 36 36 35 36 36 35 35 34 33 34 36 37 39 39 38 39 39 38 36 36 37 37
8 8 8 8 8 8 8 8 8 8 8 9 10 10 13 14 16 17 20 23 24 30 30 37 37 37 35 36 36 36 36 35 36 36 35 34 34 37 39 38 38 38 38 37 34 36 37
8 8 8 8 8 8 8 8 8 8 8 9 9 13 15 19 20 19 22 22 26 28 33 35 36 36 36 36 37 36 36 35 36 36 35 36 35 39 38 39 39 38 37 39 37 38 38
7 7 7 7 8 8 8 8 8 8 8 9 8 12 17 19 21 21 20 21 26 29 32 33 32 34 35 36 36 37 36 37 37 37 37 36 35 38 39 39 39 38 39 36 37 34 35
7 7 7 7 7 7 7 8 8 7 8 9 10 17 21 22 22 21 20 22 24 26 27 27 29 31 34 35 36 36 36 38 38 38 38 37 36 37 39 37 37 37 37 37 38 38 37
7 7 7 7 7 7 7 7 7 7 7 10 14 16 22 21 21 21 21 22 22 25 27 28 29 30 30 32 35 36 36 37 39 38 37 37 36 35 36 39 39 38 37 37 36 35 38
7 7 7 7 7 7 7 7 7 7 7 9 13 16 18 19 19 20 22 23 24 25 26 26 27 29 31 31 31 32 35 38 39 38 37 38 36 34 34 37 39 38 38 37 37 37 36
6 7 7 7 7 7 7 7 7 7 7 8 11 15 19 21 21 21 21 21 22 25 25 26 26 27 29 29 31 30 32 34 37 38 29 35 36 34 35 35 37 37 37 38 37 36 36
6 6 6 6 6 6 7 7 8 7 7 7 12 13 16 15 17 17 14 17 17 19 22 22 21 22 24 25 28 29 31 32 35 35 35 35 33 35 36 36 37 37 37 37 37 37 36
6 6 6 6 6 6 6 7 7 7 7 7 8 11 12 14 16 16 15 15 16 17 20 19 18 19 20 19 19 18 22 28 32 34 35 35 32 33 34 36 36 37 37 38 38 37 37
6 6 6 6 6 6 6 6 7 7 7 7 7 8 8 11 14 16 17 17 15 17 18 18 19 17 17 19 18 19 22 24 27 29 33 33 33 32 32 35 35 35 36 37 38 38 37
6 6 6 6 6 6 6 6 7 7 6 7 7 7 6 9 13 14 16 17 16 16 17 17 17 14 17 19 18 20 23 25 27 28 33 32 31 32 33 33 31 35 38 38 37 38 38
6 6 6 6 6 6 6 6 6 7 7 6 7 6 6 7 11 11 15 15 15 12 16 17 19 20 20 17 15 16 22 24 26 29 31 32 32 31 31 32 33 34 37 36 36 36 37
6 6 6 6 6 6 6 6 7 7 7 7 7 6 6 6 10 13 12 13 13 15 15 17 19 21 19 17 13 13 14 20 25 28 29 30 30 30 31 30 30 33 34 35 35 32 34
6 6 6 6 6 6 6 6 7 7 7 7 7 7 6 5 8 11 12 12 12 13 12 15 13 18 18 17 15 12 14 19 21 26 26 27 27 28 30 30 32 31 33 34 31 32 32
6 6 6 6 6 6 6 6 7 7 7 7 8 7 6 6 8 10 13 13 13 11 9 11 9 15 18 17 17 17 17 20 22 25 26 26 26 28 29 29 28 33 29 30 30 32 32
6 6 6 6 6 6 6 6 7 7 7 6 7 8 7 7 9 10 11 13 14 14 15 14 11 10 12 16 15 15 17 19 21 22 27 26 28 28 29 30 31 31 30 31 32 31 31

GFSGBSN_925_temp_009.txt.gz
Temp
9 9 9 8 9 9 9 8 8 9 9 9 10 12 14 14 14 14 15 16 17 18 19 20 20 20 21 21 25 31 31 31 31 30 29 31 31 31 32 34 35 35 36 38 38 37 37
9 9 8 8 9 9 9 9 9 10 10 10 10 10 12 13 14 14 15 17 17 18 19 21 20 17 16 22 30 32 32 31 31 29 30 31 32 33 34 34 34 36 37 37 38 37 36
9 9 8 8 9 8 9 9 8 9 10 10 10 10 11 12 13 14 16 18 19 20 20 20 18 13 19 24 31 32 32 32 32 32 30 33 33 32 34 33 36 36 35 37 38 38 38
9 9 9 9 9 9 9 9 8 9 9 10 10 11 12 13 14 14 16 17 20 21 20 18 13 15 18 28 31 30 32 32 33 33 33 34 34 32 33 34 35 34 34 33 37 38 38
9 9 9 9 9 9 9 9 9 9 9 9 9 10 11 14 14 15 16 18 21 21 19 16 14 16 22 30 28 32 33 33 34 34 34 35 34 32 33 32 30 32 31 33 35 38 37
9 9 9 9 9 9 9 9 8 9 9 9 9 10 10 12 14 15 16 20 20 17 18 15 18 20 24 29 33 33 34 34 33 33 33 33 31 30 31 29 29 30 32 33 34 37 36
9 9 9 9 9 9 9 9 9 8 8 8 8 9 10 12 14 16 15 17 19 19 19 23 24 26 30 33 35 34 35 34 33 32 30 31 29 29 30 32 33 33 33 34 36 37 36
9 9 9 9 9 9 9 9 9 9 9 8 8 9 9 13 15 18 16 16 23 25 24 27 28 27 28 30 31 34 36 32 31 30 31 30 30 31 33 33 34 34 33 34 36 38 35
9 9 9 9 9 9 9 9 9 9 9 9 9 9 10 12 16 18 16 19 24 26 22 25 28 28 29 30 30 32 34 33 32 31 31 30 31 34 34 33 34 33 33 33 34 37 37
9 9 9 9 9 8 9 9 9 9 9 9 9 10 10 10 18 14 16 21 24 25 20 26 29 30 30 31 31 33 35 33 32 31 32 31 33 34 33 33 34 32 35 36 36 35 34
9 9 9 9 9 8 9 9 9 9 9 9 9 10 10 10 9 12 19 20 21 23 21 33 33 35 31 30 33 32 35 34 32 32 31 31 32 33 33 34 35 34 35 36 36 35 33
8 8 8 9 8 8 9 9 9 9 9 9 9 10 10 10 10 16 17 18 21 21 22 31 35 33 31 31 32 35 33 34 34 32 32 32 34 34 34 35 36 36 35 35 35 34 32
8 8 8 8 8 8 8 8 8 8 8 9 10 10 10 8 11 18 18 19 20 21 30 33 33 34 33 32 32 32 33 32 31 29 30 32 33 34 35 34 34 35 32 31 31 31 30
8 8 8 8 8 8 8 8 8 8 8 8 9 10 12 12 14 15 16 18 19 26 27 31 31 33 32 33 33 33 32 31 32 31 29 29 29 33 35 34 33 33 33 31 28 30 31
7 7 7 7 7 7 7 7 8 8 8 8 9 9 11 15 16 16 16 17 21 24 27 29 27 30 32 33 33 33 32 32 32 32 30 30 30 34 36 36 35 33 32 34 30 31 30
7 7 7 7 7 7 7 7 7 7 8 9 7 10 12 18 18 18 17 17 21 24 24 23 22 26 25 27 31 32 32 34 33 34 33 31 29 33 36 36 35 34 35 32 33 30 30
7 7 7 7 7 7 7 7 7 7 8 9 8 13 17 19 20 18 16 18 20 22 23 23 23 23 25 26 27 28 33 34 35 35 34 33 31 32 33 33 33 33 33 32 31 32 31
7 7 7 7 7 7 7 7 7 7 7 9 11 11 16 16 15 19 18 19 19 21 22 22 23 23 23 25 25 27 28 30 36 36 34 33 31 30 31 34 36 35 32 31 29 29 29
6 6 6 7 7 7 7 7 7 7 7 7 9 11 14 16 15 17 19 20 21 21 22 22 23 24 25 24 23 25 27 31 32 33 34 33 32 29 30 32 34 34 35 32 33 28 29
6 6 6 6 6 6 7 7 7 7 7 7 8 10 14 15 17 17 15 14 14 17 18 20 20 21 21 21 22 22 24 29 31 31 29 29 31 32 31 30 32 31 34 34 32 31 31
6 6 6 6 6 6 6 7 7 8 7 7 8 10 13 10 12 12 13 12 14 15 17 18 17 16 17 17 18 20 19 19 21 24 28 28 30 32 32 34 33 34 34 35 33 33 31
6 6 6 6 6 6 6 7 7 7 7 7 7 9 9 9 11 12 13 15 15 16 15 15 16 15 16 13 13 14 16 16 17 20 20 22 26 28 29 33 34 34 34 35 35 34 33
6 6 6 6 6 6 6 6 7 7 7 7 8 8 7 8 10 11 12 14 13 15 14 16 15 16 14 16 16 15 16 17 17 18 19 21 23 26 28 31 31 31 33 34 34 35 34
6 6 6 6 6 6 6 6 6 7 7 7 7 7 6 7 9 11 12 13 14 14 13 15 14 14 17 18 17 16 18 18 20 20 22 22 22 23 27 28 27 31 33 35 34 34 34
6 6 6 6 6 6 6 6 6 7 7 6 6 6 6 7 8 10 12 13 13 14 14 14 14 15 16 17 15 15 18 20 22 24 24 24 23 24 25 26 29 31 33 34 33 32 34
6 6 6 6 6 6 6 6 6 7 7 7 7 7 6 6 7 11 10 11 11 12 12 14 14 14 14 15 13 12 14 16 18 20 26 26 24 24 25 26 27 30 33 32 33 29 30
6 6 6 6 6 6 6 6 6 7 7 7 7 7 6 5 7 8 9 10 12 11 10 12 11 11 11 15 14 13 13 16 16 18 20 23 24 24 24 26 29 28 29 32 28 27 30
6 6 7 7 7 6 6 6 6 7 7 7 8 7 6 6 7 8 10 10 11 11 10 11 9 9 9 12 15 14 15 16 17 18 19 17 17 23 25 26 27 27 28 29 25 27 27
6 7 7 7 7 7 6 6 6 6 6 6 7 8 7 6 7 8 8 9 10 12 12 8 9 8 8 11 13 14 16 15 15 16 20 17 18 18 22 23 25 26 25 25 24 23 24

GFSGBSN_925_temp_015.txt.gz
Temp
10 9 9 9 9 9 9 9 9 9 9 10 10 10 10 10 10 10 11 12 13 14 16 17 14 18 16 17 20 31 30 28 26 26 27 26 26 26 26 27 29 28 30 31 32 34 32
9 9 9 8 8 9 9 8 8 9 9 10 10 10 10 11 11 11 12 14 14 15 16 16 12 13 14 20 28 29 28 27 28 25 26 26 26 26 27 28 29 30 31 31 32 32 33
9 9 9 9 9 9 9 9 8 9 9 9 10 10 10 11 11 12 14 14 16 18 16 13 10 12 13 21 28 28 28 28 28 28 24 27 28 28 27 28 31 31 31 31 31 32 32
9 9 9 9 9 9 9 9 9 9 9 9 9 10 10 11 11 13 14 16 17 18 18 15 10 11 15 25 25 28 29 28 28 28 29 29 29 26 28 28 29 31 30 30 32 33 33
9 9 9 9 9 9 9 9 9 9 10 10 10 10 11 11 12 13 14 18 17 15 15 13 12 12 17 24 23 28 25 28 29 28 28 29 27 26 28 27 26 25 28 29 30 32 31
9 8 8 8 8 9 9 9 9 9 9 9 10 10 11 11 12 13 16 17 16 13 12 12 14 16 19 26 27 27 28 27 27 26 27 27 25 24 23 24 25 27 28 28 29 32 31
9 8 8 8 9 9 9 9 9 9 9 9 9 10 10 10 12 13 16 16 15 16 16 18 19 20 23 26 28 28 27 27 28 27 25 26 25 23 25 25 27 28 29 28 29 32 32
8 8 8 8 8 8 8 8 8 8 9 9 9 10 10 10 13 14 14 14 16 15 13 18 18 20 23 24 25 26 28 26 26 25 25 25 25 25 27 26 27 27 28 28 29 30 30
8 8 8 8 8 8 7 7 8 8 8 9 9 10 10 11 14 14 11 15 15 14 13 19 20 21 22 22 23 25 26 26 26 25 25 25 26 27 27 27 27 26 26 28 28 29 31
8 8 8 7 7 7 8 8 8 8 8 9 9 10 10 9 14 11 13 15 15 13 16 21 22 23 23 22 22 26 27 28 27 27 25 25 27 28 27 27 27 25 28 29 30 29 27
8 7 7 7 7 7 7 7 8 8 8 8 9 10 10 9 8 7 15 15 15 16 20 27 25 26 23 25 27 25 28 28 27 26 25 25 26 27 27 29 27 28 30 29 30 28 28
7 7 7 7 7 7 7 7 7 8 8 8 9 10 10 9 7 12 13 14 15 19 19 25 27 25 24 25 27 26 27 29 28 28 27 27 28 29 28 29 29 30 30 28 27 25 25
7 7 7 7 7 7 7 7 7 8 8 8 9 10 11 8 9 13 12 12 17 17 23 24 21 22 23 25 26 28 27 27 26 26 26 27 28 28 29 28 28 28 25 24 24 24 27
7 7 7 7 7 7 7 7 7 7 8 8 9 11 11 11 11 9 11 14 16 20 20 20 20 21 23 22 25 25 27 27 27 26 26 25 25 28 28 28 27 25 26 21 24 23 27
6 6 7 7 7 7 7 7 7 7 7 8 9 11 10 12 12 10 9 12 15 17 20 19 20 19 19 20 20 21 20 28 28 25 26 23 25 28 30 29 29 27 26 28 25 24 24
6 6 6 7 7 7 7 7 7 7 7 8 7 6 8 12 11 11 9 11 14 18 18 18 18 18 17 18 19 18 20 23 24 25 26 25 25 26 29 29 28 29 27 28 20 25 26
6 6 6 6 7 7 7 7 7 7 7 8 7 4 12 12 11 8 9 9 14 17 18 17 17 17 18 18 19 19 19 21 21 21 22 24 24 27 27 26 27 26 28 25 24 23 27
6 6 6 6 7 7 7 7 7 7 7 7 5 5 13 11 8 5 7 9 13 15 15 16 17 17 17 17 17 19 19 20 19 19 17 18 19 25 27 27 30 29 29 24 26 25 23
6 6 6 7 7 7 7 7 7 6 6 6 3 3 11 11 7 7 9 11 13 13 13 14 15 15 15 16 17 16 16 18 18 18 16 17 17 22 24 26 27 27 27 28 26 24 28
6 6 6 6 7 7 7 7 7 6 6 6 4 5 4 5 7 8 7 10 10 13 13 14 14 14 14 14 13 14 15 17 17 18 19 15 15 19 21 24 25 26 28 29 27 27 29
6 6 6 6 6 7 7 7 7 7 6 6 3 4 5 5 6 5 7 9 10 9 11 13 12 13 12 12 12 13 15 14 16 17 15 13 14 17 19 20 22 25 27 29 27 29 29
6 6 6 6 6 7 7 7 7 7 6 7 6 5 6 6 7 6 6 9 9 9 9 10 11 12 12 11 12 12 12 13 13 14 13 12 14 15 18 22 23 25 27 29 30 30 29
6 6 6 6 6 6 7 7 7 7 6 6 7 7 6 7 7 7 6 8 8 9 10 10 11 10 11 12 11 11 11 12 13 14 12 13 13 14 15 19 20 23 27 29 30 29 29
6 6 6 6 6 6 6 7 7 7 6 6 6 6 6 7 7 8 9 8 8 8 9 10 11 10 12 11 11 11 9 11 12 12 13 13 13 14 15 17 21 26 27 30 30 29 28
6 6 6 6 6 6 6 6 7 7 7 6 6 6 6 6 7 8 8 8 8 7 7 8 10 11 9 9 9 10 11 12 12 14 13 13 14 14 16 16 20 26 27 26 29 28 28
7 7 6 6 6 6 6 7 6 7 7 6 7 6 6 6 7 7 6 7 6 7 7 9 10 9 9 7 8 10 10 13 14 16 15 14 15 17 16 18 20 24 22 22 22 29 26
7 7 7 7 7 6 6 6 6 7 7 6 6 6 6 6 7 7 7 5 7 7 6 6 7 8 8 8 7 8 9 12 12 14 15 14 16 15 17 17 19 19 19 22 25 27 26
7 7 7 7 7 6 6 6 6 6 6 6 6 6 6 6 7 8 8 7 7 6 7 6 7 7 6 9 9 9 9 11 12 13 14 15 16 15 17 18 18 19 20 20 19 18 23
8 7 7 7 7 7 6 6 6 6 6 6 6 6 6 6 6 7 7 8 8 8 7 6 7 7 7 7 7 7 9 10 10 12 13 14 16 15 18 18 18 19 19 18 18 18 19

GFSGBSN_925_temp_021.txt.gz
Temp
9 9 9 9 9 9 9 9 9 9 9 9 9 10 10 10 10 11 11 11 11 11 12 10 10 9 12 18 23 25 26 25 21 23 25 26 25 26 27 27 27 27 30 30 31 32 32
9 9 9 8 8 8 8 9 8 8 8 8 9 10 10 11 11 11 11 10 11 13 15 11 9 9 12 21 25 25 25 22 22 24 25 26 26 27 28 28 28 30 30 31 32 33 33
9 9 8 8 8 8 8 8 8 8 8 8 9 9 10 10 10 11 11 11 13 14 17 13 9 9 13 23 24 25 22 23 23 24 26 26 27 28 29 29 30 30 30 32 33 33 33
8 8 8 7 7 7 7 7 7 7 9 9 9 10 10 9 11 12 12 14 12 12 15 11 10 10 19 22 23 23 22 22 22 25 26 26 27 29 28 29 30 30 30 31 34 34 33
8 8 8 7 7 7 7 7 7 8 9 9 9 10 10 9 11 13 15 13 11 12 11 10 10 12 21 21 21 23 23 25 23 24 25 26 27 28 28 28 29 30 31 31 33 34 32
8 8 7 7 7 7 7 7 7 8 9 9 9 9 10 10 12 14 14 13 11 11 11 11 12 15 20 24 23 22 24 24 25 25 26 27 27 27 28 28 28 29 29 31 32 34 33
7 7 7 7 7 7 7 7 7 8 9 9 9 9 9 11 12 15 15 14 17 16 14 19 20 20 23 25 24 24 24 25 26 26 26 26 26 27 28 28 29 30 31 31 33 34 33
7 7 7 7 7 7 7 7 7 8 9 9 9 9 9 11 12 14 15 15 12 11 13 17 16 18 20 21 24 25 25 27 26 26 27 25 26 28 28 27 28 29 30 31 31 32 32
7 7 7 7 6 6 7 7 7 8 8 9 8 9 10 10 12 12 10 11 9 10 13 18 17 19 21 21 22 26 26 28 27 27 26 27 28 28 27 27 27 29 29 31 31 31 32
7 7 7 7 7 7 7 7 7 7 8 9 8 8 10 10 12 9 12 11 10 9 17 22 21 22 21 23 23 26 27 28 28 27 27 28 29 28 27 27 28 28 30 30 30 30 31
6 7 6 7 7 7 7 7 7 7 8 9 8 8 9 9 7 9 11 10 9 10 23 24 22 23 23 25 26 25 27 28 29 29 28 28 28 27 27 28 28 29 30 30 31 31 31
6 6 6 6 6 7 7 7 7 7 8 9 9 9 9 9 8 10 9 9 10 19 21 25 24 24 23 24 25 25 26 28 29 28 29 30 28 29 29 29 29 30 29 29 29 31 29
6 6 6 6 7 7 7 7 7 7 7 8 8 10 9 8 11 10 10 12 18 19 23 22 22 22 22 24 25 25 25 26 28 27 27 29 28 29 30 29 29 30 30 29 28 29 29
6 6 6 7 7 7 7 7 7 7 7 8 9 10 11 11 10 9 10 16 17 20 19 19 20 21 23 21 23 24 25 26 29 29 29 28 27 29 29 30 29 29 30 30 28 30 31
6 6 7 7 7 7 7 7 7 7 7 8 9 9 11 11 10 9 14 15 17 15 15 16 19 20 21 21 21 22 24 27 28 28 29 28 28 29 30 30 31 28 29 31 30 27 29
6 6 7 7 7 7 7 7 7 7 7 8 7 6 9 10 10 10 14 12 13 14 15 16 17 18 19 19 21 22 23 19 23 23 22 27 28 30 30 31 31 29 31 28 29 28 28
6 6 7 7 7 7 7 7 7 7 7 8 6 9 11 11 10 13 12 11 12 13 14 15 16 16 18 18 19 20 19 19 19 20 22 23 27 27 30 29 29 28 29 30 31 30 30
6 7 7 7 7 7 7 7 7 7 7 6 6 10 10 11 11 10 11 10 11 13 13 13 15 16 16 17 18 19 18 18 19 19 20 20 25 28 28 30 32 31 30 30 29 27 29
6 7 7 7 7 7 7 7 7 7 6 5 5 7 9 10 9 9 9 10 11 12 12 12 13 14 15 16 17 17 17 17 18 19 19 20 23 26 27 29 29 30 31 31 31 31 28
6 6 6 6 7 7 7 7 7 7 7 6 7 9 10 9 8 8 8 9 10 12 11 9 11 13 14 15 16 16 17 17 17 18 18 19 20 24 28 27 25 25 28 30 30 30 30
6 6 6 6 6 6 7 7 7 7 7 6 6 7 7 8 9 9 9 8 10 10 11 11 8 9 10 13 15 15 15 16 17 16 18 19 20 20 21 21 22 23 24 26 27 29 30
6 6 6 6 6 6 7 7 7 6 7 6 7 7 6 6 8 8 8 9 9 10 9 10 9 9 8 8 12 12 12 14 15 16 17 17 19 19 20 22 22 23 24 24 25 26 27
6 6 6 6 6 6 6 7 7 6 6 6 6 6 5 6 7 7 9 9 9 9 10 10 8 8 10 11 11 12 13 13 14 13 15 16 18 19 20 21 22 22 24 25 26 27 28
7 6 6 6 6 6 6 7 7 7 6 6 6 6 6 7 6 8 9 9 9 9 8 9 10 9 11 12 13 14 13 13 14 14 14 15 16 18 19 20 20 25 26 26 27 28 29
8 7 7 8 8 7 6 6 7 7 6 6 6 5 6 7 8 9 9 9 9 9 9 9 10 11 11 11 12 13 14 13 14 15 15 14 16 17 18 20 22 23 25 25 25 28 28
8 8 8 8 8 8 6 6 6 7 6 6 6 6 5 6 8 9 8 8 7 8 8 9 11 10 10 10 11 11 13 14 15 16 16 15 15 16 18 18 20 24 25 24 23 24 24
8 8 9 8 8 8 7 6 7 7 7 6 6 6 5 6 7 9 8 7 8 7 7 9 9 10 10 10 10 11 12 14 14 15 14 14 14 14 16 17 20 23 23 22 23 26 23
8 8 9 8 9 8 7 6 6 7 7 6 6 6 6 6 7 7 8 8 8 7 6 9 9 9 8 9 10 10 10 13 13 15 15 15 14 14 15 16 16 22 23 23 23 22 22
8 8 9 9 9 8 6 7 7 7 7 7 6 6 6 5 6 8 7 7 8 9 8 6 8 8 9 8 9 8 10 11 12 12 15 14 15 16 17 18 19 20 20 21 20 21 21

GFSGBSN_925_temp_024.txt.gz
Temp
9 9 9 8 8 8 8 8 8 8 8 9 9 10 10 10 11 11 11 11 11 13 13 11 9 10 15 23 27 27 26 25 23 27 29 30 30 31 32 33 33 32 34 35 35 35 36
8 8 8 8 8 8 7 7 8 8 9 9 9 10 10 10 11 12 12 11 13 15 14 10 9 10 18 23 28 27 26 24 25 28 29 31 31 32 33 33 33 35 34 35 36 37 37
8 9 8 8 7 7 7 7 8 8 9 9 9 10 10 11 12 12 12 13 14 15 11 11 9 12 19 26 26 26 26 27 27 28 31 31 31 32 33 33 34 34 33 35 36 37 36
8 8 8 7 7 7 7 7 8 9 9 9 10 10 10 11 12 13 14 13 14 13 11 11 10 14 23 25 25 25 26 27 27 28 30 31 31 32 33 34 33 33 34 34 37 37 37
7 7 7 7 7 7 8 8 8 9 9 9 9 9 11 11 13 13 15 13 11 13 10 10 13 18 26 22 24 26 26 27 28 28 29 30 31 31 32 31 33 34 34 35 36 37 37
7 7 7 7 7 7 8 8 9 9 9 9 9 9 10 11 13 14 14 13 11 12 13 14 16 19 23 27 27 27 26 28 28 29 29 29 29 30 31 31 31 33 34 36 36 37 37
7 7 7 7 7 7 7 8 8 8 8 9 9 10 11 11 13 14 13 17 21 20 19 24 26 26 27 28 26 27 27 28 29 29 29 30 29 30 32 32 34 35 35 35 36 37 36
7 7 7 7 7 7 7 8 8 8 8 8 9 10 10 12 12 13 15 19 14 13 16 22 22 24 25 25 28 29 28 29 29 28 31 29 29 32 33 33 33 33 33 35 36 37 36
7 7 7 7 7 7 7 7 8 9 9 9 9 10 11 12 13 14 15 14 13 13 17 24 24 25 25 26 27 29 29 30 29 29 30 31 32 32 32 32 31 32 32 34 35 36 36
6 6 6 7 7 7 8 8 8 9 9 9 9 10 10 12 15 13 16 14 13 13 20 27 24 25 25 27 26 30 29 31 30 30 31 31 33 32 31 31 32 31 33 34 34 34 34
6 6 7 7 7 7 7 7 7 8 9 9 9 10 11 11 11 15 13 13 12 14 25 28 26 25 27 28 31 28 29 30 31 31 32 31 31 31 31 31 32 32 34 34 33 34 34
6 6 6 7 7 7 7 7 7 8 8 9 9 10 11 13 13 13 13 12 14 20 24 28 27 26 26 27 29 30 29 31 32 32 32 32 33 33 32 33 32 33 33 33 33 33 33
6 6 7 7 7 7 7 8 8 8 9 9 10 10 10 11 14 12 12 16 20 22 27 25 26 26 27 28 28 28 28 28 29 29 30 31 32 32 33 32 32 32 32 31 31 32 33
6 7 7 7 7 8 8 7 8 8 9 9 10 11 11 12 13 12 14 18 19 24 22 22 22 24 25 28 27 29 28 29 30 31 32 31 30 32 33 32 32 31 33 33 31 33 34
6 6 7 7 8 7 8 8 8 8 9 9 10 13 14 14 13 12 16 18 20 17 17 18 21 24 27 26 26 27 28 29 30 32 31 32 32 34 33 33 34 32 33 35 35 35 34
6 7 7 7 7 7 8 8 8 8 8 9 10 13 15 13 13 15 17 16 17 16 17 18 20 22 23 24 25 27 29 26 31 32 32 32 32 33 33 34 34 34 34 33 34 32 32
6 7 7 7 7 7 7 7 7 7 8 9 13 15 14 13 15 18 16 15 15 17 16 17 18 19 21 22 23 26 27 23 25 30 26 30 32 33 33 32 32 33 33 33 35 35 34
7 7 7 7 7 7 7 7 7 7 8 10 13 15 13 13 16 16 15 14 13 16 17 17 17 18 19 20 21 23 23 23 22 24 25 29 31 31 32 34 34 34 33 33 33 32 34
8 7 7 7 7 7 7 7 7 7 7 9 13 13 14 14 14 14 14 14 15 15 14 14 15 16 18 18 19 21 21 21 21 24 25 27 29 30 31 33 33 33 34 34 34 35 33
8 6 6 6 7 7 7 7 7 7 7 9 13 14 15 15 14 13 12 13 14 15 14 14 10 13 15 18 20 19 20 21 21 21 19 21 28 30 32 32 32 32 33 34 34 34 34
8 7 6 7 6 7 7 7 7 7 7 9 12 13 11 12 12 11 12 13 12 12 14 15 9 9 9 15 18 19 19 20 21 21 22 24 26 26 30 28 28 32 32 33 33 33 33
8 8 8 7 8 7 7 7 7 7 7 10 11 10 11 9 11 12 12 12 12 12 12 12 12 10 10 9 12 13 15 18 19 20 21 23 24 24 26 27 27 27 29 31 32 34 33
8 8 8 8 8 8 8 7 7 7 7 9 9 10 9 10 10 11 12 10 10 11 13 13 13 12 13 12 12 14 16 17 17 17 19 20 23 23 25 27 27 26 28 29 30 31 31
8 8 8 8 8 8 8 7 7 7 6 6 8 8 8 10 11 10 11 11 10 10 9 12 13 12 14 15 15 16 17 18 18 18 19 19 20 23 25 25 23 29 32 30 30 30 31
8 8 8 8 8 8 7 6 6 7 6 6 6 7 8 9 11 11 11 11 11 10 10 12 13 13 14 14 15 16 18 17 18 19 19 19 20 22 22 24 27 28 28 28 29 30 32
8 9 9 8 8 9 7 6 6 7 7 6 6 6 7 7 10 12 10 10 11 11 11 12 14 14 14 14 14 14 17 18 19 19 20 20 19 20 22 22 23 27 29 28 28 27 31
8 8 9 8 8 8 6 6 7 7 7 6 6 6 6 7 8 10 9 10 10 10 10 12 12 13 14 12 14 15 16 17 17 18 18 19 18 18 20 21 24 27 26 26 25 26 27
8 8 9 8 9 8 6 7 7 7 7 7 7 6 6 6 8 11 11 10 10 9 9 11 11 11 12 11 13 15 15 16 17 19 19 19 18 19 20 20 20 26 25 24 24 25 25
8 8 9 9 9 7 7 7 7 7 7 7 7 7 6 6 7 9 9 9 10 10 9 8 11 12 13 12 11 12 13 14 15 16 19 17 19 20 21 21 22 24 24 24 24 24 24

GFSGBSN_925_temp_027.txt.gz
Temp
9 8 8 8 8 8 8 8 8 8 8 9 10 10 11 11 12 12 12 12 14 15 14 13 11 13 14 24 29 27 29 25 24 26 31 33 33 33 34 36 37 36 37 38 38 38 39
8 8 8 8 8 8 8 8 8 8 9 10 10 11 11 12 12 12 13 13 14 16 14 12 10 10 18 25 31 31 28 24 27 28 32 33 34 35 35 36 37 37 37 38 38 39 39
8 8 8 8 8 7 8 8 8 9 9 10 10 11 11 12 13 13 13 14 15 15 14 12 11 12 23 27 31 30 29 28 29 29 34 33 34 35 35 35 37 37 36 37 37 38 39
8 8 8 8 7 8 8 8 9 9 10 10 10 11 11 12 14 14 15 14 13 14 16 13 11 15 24 29 28 29 30 30 30 30 33 33 34 35 35 37 36 36 36 36 38 39 39
8 7 7 7 7 8 8 8 9 9 9 10 10 11 12 13 14 14 16 15 11 13 14 10 15 20 27 26 28 29 30 31 32 31 32 34 34 34 35 34 35 36 35 36 37 39 39
7 7 7 7 7 8 8 8 8 8 9 9 10 11 11 13 14 15 17 16 14 13 15 16 20 22 25 30 30 29 30 31 33 33 33 33 33 32 34 34 33 35 36 38 37 39 39
7 7 7 7 7 7 8 8 9 9 9 10 11 11 11 13 14 16 16 21 22 22 21 26 28 27 31 31 30 31 31 32 33 32 31 32 31 31 33 34 35 37 37 37 39 40 39
7 7 7 7 7 8 9 9 9 9 10 10 11 11 11 13 14 16 19 22 18 17 18 23 25 27 28 30 30 31 31 31 31 31 32 32 31 33 34 35 35 36 36 38 39 40 39
7 7 7 8 8 9 9 9 9 10 10 10 11 11 12 13 15 18 19 19 18 18 20 24 28 28 29 30 30 32 32 32 31 31 32 33 34 34 34 35 35 35 36 37 38 39 39
7 7 7 7 8 8 8 9 9 9 9 10 11 12 12 14 16 18 20 18 18 18 20 28 29 30 30 30 29 32 32 32 32 32 33 33 36 34 34 34 35 35 37 37 37 37 37
7 7 7 7 8 8 8 8 8 9 9 10 10 11 13 10 14 19 18 18 18 19 24 32 29 29 31 29 34 31 33 33 33 32 33 33 34 34 34 34 36 35 37 36 36 36 37
7 7 7 8 8 8 8 8 9 10 10 11 11 12 11 16 17 18 17 18 19 20 23 30 30 28 29 29 32 34 32 33 34 33 34 34 36 36 35 36 36 36 36 36 36 36 35
7 7 7 7 8 8 8 9 10 10 11 11 11 12 12 13 18 17 17 20 20 21 30 27 27 30 30 30 30 33 31 30 31 30 32 33 35 36 36 35 36 35 34 33 33 34 34
7 7 7 7 8 8 9 9 9 10 10 10 12 14 15 16 17 17 18 20 18 24 23 23 23 24 26 30 31 32 31 30 31 32 33 33 32 35 36 35 35 34 35 34 32 34 35
7 7 7 8 8 8 8 9 9 9 10 11 11 18 18 17 17 17 19 19 21 22 20 20 22 26 27 29 31 31 31 31 32 33 32 34 34 36 36 36 36 34 35 37 37 38 38
7 7 8 8 8 8 7 8 8 9 10 11 11 18 19 17 17 19 20 19 17 18 19 20 20 23 24 27 29 30 31 32 32 33 34 35 34 36 36 36 36 36 36 35 36 34 35
8 8 8 8 8 8 7 8 8 8 9 12 14 20 18 17 18 21 18 18 17 19 20 19 19 19 19 20 21 28 30 30 31 32 33 34 35 35 37 35 34 35 35 36 37 37 36
9 9 8 8 8 8 7 7 8 8 9 12 17 18 18 17 20 19 17 18 16 19 19 18 18 20 19 19 18 23 28 26 25 27 30 34 34 33 35 36 37 37 35 36 35 34 37
9 9 8 8 8 8 8 7 8 8 8 9 17 19 19 18 17 17 17 17 17 17 17 17 17 16 17 18 17 17 21 24 24 26 27 32 31 32 34 36 36 35 36 37 37 37 36
9 9 9 9 8 8 8 7 7 8 8 8 16 17 19 19 18 16 15 16 16 18 17 17 15 16 15 17 19 19 18 22 24 24 21 24 30 31 34 35 35 34 36 36 37 36 36
9 9 9 9 9 8 8 7 7 7 8 9 15 16 15 15 16 15 16 16 14 15 16 17 12 13 14 14 17 13 16 20 24 23 25 27 27 30 33 35 37 35 35 36 35 36 36
8 9 9 9 9 8 8 7 7 7 8 10 13 13 14 13 14 15 15 14 15 14 15 15 15 15 15 13 14 13 14 16 18 21 23 27 26 28 31 33 32 32 36 36 36 36 36
8 9 8 9 9 8 8 8 7 7 7 7 9 11 11 12 14 14 14 15 15 13 14 15 15 15 15 15 16 18 17 19 19 19 21 22 26 27 28 31 31 29 33 35 36 36 37
8 9 9 8 9 8 8 7 7 7 6 6 6 6 8 11 14 14 14 14 13 14 13 15 15 15 16 18 18 18 19 19 20 21 22 21 23 25 27 29 27 31 34 34 34 35 36
8 8 9 8 8 8 8 7 7 7 7 6 6 6 7 9 13 14 14 13 13 13 14 15 16 16 17 17 16 17 19 19 20 21 22 22 22 24 25 28 30 31 33 33 32 32 34
8 9 9 9 8 8 7 7 7 7 7 7 7 6 6 7 11 13 13 13 12 13 13 15 16 17 16 16 17 15 18 21 21 21 22 23 22 22 25 26 28 31 32 32 32 30 34
8 8 9 9 8 6 6 7 7 7 8 7 7 7 6 7 9 12 11 12 13 12 12 13 14 16 17 14 15 17 18 20 20 21 21 21 21 21 22 24 27 30 30 31 28 27 30
8 8 9 8 7 6 7 7 7 7 7 7 8 7 6 6 7 10 12 11 12 12 10 13 14 15 15 14 15 16 18 18 19 21 22 21 21 21 22 22 23 29 29 27 25 26 26
8 8 8 8 6 6 7 7 7 7 8 7 8 7 7 6 8 10 10 11 12 12 11 11 13 13 14 13 13 14 17 18 18 19 22 20 21 22 23 24 25 26 26 27 26 25 25

GFSGBSN_925_temp_030.txt.gz
Temp
8 8 8 8 8 8 9 9 9 10 10 11 11 11 12 12 13 13 14 15 15 15 15 14 12 10 13 21 26 30 29 29 26 27 29 32 33 33 33 34 36 36 32 33 27 31 39
8 8 8 8 8 8 8 8 9 9 10 11 11 11 12 13 13 14 14 15 16 16 15 13 11 10 16 22 29 30 29 26 28 28 30 32 34 34 34 35 36 37 38 35 33 34 39
8 8 8 8 8 9 9 10 10 10 11 11 11 11 12 13 14 15 15 16 15 15 15 14 11 12 21 25 31 33 31 28 29 29 31 32 34 35 35 35 37 38 36 38 38 39 39
8 8 8 8 8 9 9 9 10 10 10 11 11 12 12 13 15 15 17 17 16 14 15 13 11 14 22 29 28 29 32 31 30 30 31 33 35 35 35 36 37 36 37 35 38 39 39
8 8 7 8 8 9 9 9 10 10 11 11 12 12 13 14 15 16 17 18 18 14 14 11 14 18 26 28 29 30 31 33 32 32 32 34 35 34 35 34 34 35 35 36 37 39 39
7 7 7 7 8 9 9 9 10 10 10 11 11 12 12 15 16 17 18 20 18 14 14 15 18 22 25 30 31 31 31 33 33 33 33 34 34 33 34 34 32 34 35 36 36 39 39
7 7 7 8 8 9 9 9 10 10 11 11 12 12 13 15 16 18 17 22 24 22 23 23 26 26 31 32 33 32 32 33 34 33 31 33 32 32 33 34 35 36 36 36 38 39 39
7 7 8 8 8 9 9 10 10 11 11 12 12 13 13 16 17 18 19 22 21 21 20 23 24 25 26 29 31 33 32 32 32 31 32 32 31 33 34 35 34 35 36 37 38 40 40
7 8 8 8 9 9 9 10 10 10 11 11 12 12 13 15 17 20 22 21 20 21 20 22 25 26 27 29 29 33 33 32 32 32 32 32 33 34 34 34 34 35 35 36 38 39 40
8 8 8 8 9 9 9 9 9 10 10 10 11 13 13 14 18 18 22 20 21 21 20 25 29 30 29 30 29 33 34 33 33 32 33 33 35 34 34 34 35 34 36 37 37 38 37
8 8 7 8 9 8 8 8 9 11 12 12 12 13 14 15 14 19 20 20 20 22 20 32 32 32 33 30 33 31 34 33 32 33 33 33 33 34 33 34 35 35 37 36 37 37 37
7 8 8 8 8 8 10 11 11 11 12 12 11 13 13 16 18 20 20 20 21 20 21 29 31 29 31 31 31 34 32 34 34 33 34 34 36 35 36 36 36 37 37 37 37 37 35
7 8 8 8 8 9 10 10 11 11 11 12 12 13 13 13 19 20 20 21 20 19 26 25 24 25 26 29 31 31 31 31 31 30 32 33 34 36 37 36 36 36 35 34 33 34 33
8 8 8 8 8 9 9 10 10 10 11 12 12 14 16 17 19 20 20 20 18 21 20 21 23 23 24 28 30 31 31 31 32 32 33 32 32 35 37 36 35 35 35 34 31 33 34
8 8 8 9 9 9 9 9 10 10 10 11 12 15 19 20 20 20 21 20 16 18 19 20 21 23 23 25 24 29 31 32 32 33 32 33 33 36 37 37 37 35 34 37 36 36 36
9 9 9 9 9 9 9 9 9 9 9 11 10 15 18 20 20 21 21 19 19 20 20 20 19 20 18 20 20 22 28 33 33 33 34 34 33 36 36 37 37 37 37 34 36 33 34
9 9 9 9 9 9 9 9 9 9 9 11 14 20 21 20 20 21 20 20 20 21 20 19 19 19 18 15 17 19 23 28 28 33 34 33 34 35 37 35 35 36 36 35 36 36 35
9 9 9 9 9 9 9 9 8 9 8 10 14 19 21 20 20 21 20 19 17 17 20 20 20 19 17 16 15 16 19 20 23 26 29 33 33 33 35 38 37 37 36 36 34 34 36
9 9 9 9 9 9 9 9 8 9 8 8 15 19 21 20 19 19 19 19 19 17 18 18 18 19 18 16 14 14 15 17 21 23 24 27 31 32 32 36 37 36 36 36 36 36 35
9 9 9 9 9 9 9 9 8 8 9 8 14 17 19 18 20 18 17 17 17 18 16 18 18 18 17 16 16 13 14 16 19 22 23 24 27 31 33 34 37 35 36 36 36 35 35
9 9 9 9 9 9 9 8 8 7 9 9 14 15 15 14 16 17 17 16 13 16 16 18 17 16 16 15 15 15 16 16 17 22 24 27 27 30 33 35 37 36 35 36 36 37 35
8 9 9 9 9 9 9 8 7 7 8 11 9 10 12 12 15 16 16 15 16 16 17 16 16 17 17 16 15 14 14 15 13 18 21 24 26 29 30 33 34 34 36 36 36 37 37
8 9 9 9 9 9 9 8 7 7 7 10 9 8 8 11 14 15 16 16 16 16 16 17 14 16 17 17 17 18 18 18 17 18 20 22 24 26 27 30 32 33 35 36 37 37 37
9 9 9 9 8 8 8 7 7 7 7 7 7 6 6 9 13 14 15 15 15 15 15 16 17 15 17 19 19 19 19 20 20 20 21 21 22 24 26 28 27 33 36 36 37 37 38
9 9 9 9 7 8 7 7 7 7 7 7 7 6 6 8 11 13 14 14 14 15 15 16 16 15 19 18 16 16 18 19 20 21 22 23 22 23 25 27 30 32 34 34 34 36 38
8 8 9 9 8 8 7 7 7 7 8 7 7 6 6 6 9 12 12 13 12 13 15 16 15 17 18 17 16 15 16 19 21 21 23 23 23 22 24 26 27 31 34 35 36 32 32
9 9 9 8 8 6 7 7 7 7 8 7 7 7 6 6 8 10 10 11 12 12 11 15 15 16 15 12 15 16 17 19 21 21 21 21 21 22 23 24 28 26 31 34 31 25 27
9 9 8 8 6 7 7 7 7 7 8 7 8 7 6 7 7 9 11 11 11 13 11 14 14 14 13 11 13 13 14 18 20 20 20 22 20 21 23 23 23 26 28 26 25 25 26
8 8 8 7 7 7 7 7 7 8 8 7 8 8 7 6 8 9 9 10 11 12 12 13 13 13 14 13 13 14 15 17 17 18 21 20 22 22 23 24 25 26 26 26 26 25 25

GFSGBSN_925_temp_036.txt.gz
Temp
8 8 9 9 10 10 10 10 11 12 12 12 13 14 14 15 16 16 16 16 17 17 17 14 11 11 11 13 16 28 27 27 22 23 24 24 24 24 25 26 27 28 28 30 31 32 31
8 8 8 9 10 10 10 11 11 12 12 12 13 14 14 15 17 17 17 18 18 18 16 13 11 10 11 15 25 26 26 26 24 23 24 25 25 25 26 27 27 29 29 31 32 31 30
8 8 8 10 10 10 11 11 12 12 13 13 14 14 14 16 17 18 19 19 20 19 18 14 11 11 12 17 25 25 24 26 25 24 23 25 26 27 27 27 29 30 29 31 31 31 31
7 8 9 10 11 11 11 11 12 12 13 13 13 14 14 16 17 18 19 20 20 19 17 14 11 12 12 21 23 23 26 25 25 25 27 26 27 26 27 28 29 29 29 28 31 33 32
8 8 10 10 11 11 11 11 11 12 12 12 12 13 14 16 17 18 20 21 21 18 17 13 12 12 13 22 21 26 23 26 25 24 26 27 26 25 26 26 25 27 27 28 31 32 33
7 8 9 10 10 10 10 11 12 12 13 13 13 14 15 16 18 18 20 21 20 18 16 13 14 13 17 24 24 24 26 26 25 25 25 25 24 22 24 23 24 26 26 28 29 32 32
8 9 10 10 10 11 11 12 12 12 12 13 13 13 14 16 18 18 19 20 17 15 19 17 17 19 20 22 23 24 25 26 26 25 23 24 24 23 25 25 27 28 28 28 30 33 33
8 9 9 10 10 10 11 12 12 12 12 13 13 13 13 15 18 18 18 16 18 19 15 19 20 19 20 21 20 22 25 25 25 25 25 23 24 26 27 27 27 28 28 28 31 32 31
9 9 9 10 10 10 10 10 11 12 13 13 13 14 14 15 18 18 17 19 19 20 14 17 20 21 20 21 20 21 23 25 25 25 25 25 27 28 28 27 28 28 27 28 29 31 32
10 9 9 10 10 10 10 11 11 12 13 13 13 15 14 15 17 16 16 19 19 19 13 17 21 22 22 22 22 23 25 24 26 26 26 26 28 28 27 28 29 26 29 30 30 29 28
10 9 10 10 10 10 11 11 11 12 13 14 14 15 14 13 14 13 19 18 18 18 17 21 20 23 21 20 21 22 22 24 24 25 25 27 27 27 27 28 29 29 30 30 30 28 28
10 10 10 10 11 10 10 11 12 12 13 14 13 16 13 14 13 19 18 18 18 15 17 20 20 19 19 20 20 19 20 20 26 24 26 27 29 29 28 30 30 30 29 29 29 27 26
10 10 10 10 10 10 10 10 12 12 12 14 14 15 16 16 16 19 17 15 13 15 19 19 17 18 18 18 19 18 17 17 17 22 24 27 27 29 30 28 29 29 26 25 25 26 26
10 10 10 10 10 10 10 10 11 11 12 13 14 16 14 17 19 18 15 12 14 18 17 18 17 17 17 18 18 17 16 15 16 14 22 24 25 28 30 28 28 28 27 24 24 24 27
10 10 10 10 9 10 10 9 10 11 12 13 14 15 16 20 20 17 12 12 15 16 17 16 16 15 16 17 16 15 15 15 16 14 12 21 25 29 30 31 30 27 27 26 24 25 24
10 10 9 9 9 9 10 9 9 11 11 12 10 11 15 18 19 17 12 13 16 17 17 16 14 15 14 14 15 14 15 17 15 15 14 14 19 28 29 31 30 30 28 27 22 25 25
10 10 9 9 9 9 10 9 9 9 11 12 10 8 16 18 19 11 12 13 17 16 16 15 14 14 15 15 14 13 14 15 14 14 13 14 15 23 28 29 29 28 29 28 27 23 25
9 9 9 9 9 9 9 9 8 9 8 10 7 8 16 17 13 10 12 14 16 14 14 15 15 15 15 13 14 14 14 12 15 14 11 14 13 15 24 28 29 30 28 27 28 25 23
9 9 9 9 8 8 8 9 8 9 7 6 6 6 15 15 9 9 11 14 16 14 14 14 14 15 14 12 13 13 13 14 15 13 10 11 13 12 22 24 27 27 29 29 24 24 25
9 9 9 9 8 8 8 8 8 8 8 7 5 7 8 8 10 10 9 11 13 16 15 15 14 14 13 13 12 13 12 14 14 14 12 11 10 12 15 21 22 27 28 29 30 27 27
9 9 9 9 8 8 8 7 7 8 8 7 6 7 7 7 8 7 8 11 13 13 14 15 13 14 13 11 13 13 14 14 14 13 11 10 10 13 16 19 21 22 29 30 28 29 29
9 9 9 8 8 7 7 7 7 8 8 8 6 6 5 7 7 8 9 11 12 11 12 12 11 13 13 11 12 11 13 13 13 12 10 11 10 13 16 22 24 26 29 29 31 30 28
9 9 9 8 8 7 7 7 7 7 7 8 8 8 6 7 7 7 10 10 10 12 11 13 11 11 12 12 13 13 13 13 13 12 11 11 11 11 15 20 27 27 25 28 31 30 31
9 9 8 8 7 7 7 7 7 7 7 7 8 7 6 7 7 8 8 9 10 11 10 12 11 10 12 12 12 12 14 14 15 15 14 12 11 11 14 19 23 23 23 24 24 23 23
9 9 8 7 6 7 7 7 7 7 7 7 7 7 6 6 7 8 8 9 8 9 11 11 12 10 9 10 10 11 12 13 15 15 15 14 13 12 16 19 24 21 20 22 22 21 21
9 8 8 6 7 7 7 7 7 8 8 7 7 7 5 6 7 8 8 7 8 9 10 11 11 10 11 7 9 11 10 11 12 15 16 13 15 13 15 18 19 17 20 24 23 19 21
9 8 7 6 6 6 7 7 7 8 8 7 7 7 6 6 6 7 8 7 7 8 8 9 8 9 10 8 9 10 11 11 12 12 12 12 15 17 18 18 17 18 19 24 19 19 21
8 7 6 6 6 7 7 7 8 8 8 7 8 8 7 6 7 8 8 8 8 8 8 9 9 8 8 9 10 9 10 11 11 10 11 12 12 13 16 15 15 16 17 16 18 20 20
8 6 6 7 7 6 7 7 8 8 8 7 7 8 7 6 7 7 8 8 7 7 8 9 8 7 9 8 9 9 9 10 12 11 13 11 11 11 12 13 14 14 13 16 17 18 19

GFSGBSN_925_temp_042.txt.gz
Temp
8 8 8 9 11 12 12 12 13 14 14 14 14 15 15 15 17 17 18 18 19 19 18 17 15 12 12 15 17 21 20 20 20 21 22 21 22 21 21 22 24 24 25 26 27 27 27
8 8 9 10 11 12 12 12 13 13 14 14 15 15 16 16 17 17 19 19 19 19 18 17 15 11 12 18 20 20 20 19 19 20 22 22 22 23 22 23 23 26 26 26 27 27 27
8 8 8 9 11 12 12 12 13 13 14 14 14 15 16 16 17 18 19 19 19 18 17 16 11 11 12 16 20 21 20 20 19 20 21 23 24 24 23 25 25 26 26 26 27 27 27
8 8 8 10 11 12 12 12 13 13 14 14 14 15 16 17 17 18 19 19 19 18 16 14 11 12 12 20 20 22 21 21 20 20 23 23 25 23 24 25 25 24 26 24 27 27 29
10 10 10 11 11 12 12 12 12 13 14 14 14 15 16 18 18 18 19 19 18 16 15 12 12 12 19 21 21 22 21 21 20 20 22 24 24 22 24 23 21 22 23 24 27 28 29
10 10 10 11 11 12 12 13 13 14 14 14 14 15 15 17 17 18 19 19 16 15 13 13 13 15 19 20 21 22 22 21 21 20 21 22 20 19 18 19 19 22 23 25 26 29 28
11 11 11 11 11 12 12 13 13 14 14 14 14 15 14 16 17 18 19 16 12 13 14 16 15 17 19 20 21 21 21 22 21 20 18 20 19 20 22 22 23 24 25 25 27 29 28
11 11 11 11 11 11 12 12 13 13 13 13 13 14 14 16 18 18 18 13 14 14 13 15 16 17 19 20 19 20 21 21 21 20 20 19 19 21 23 22 22 23 24 24 26 29 27
11 11 11 11 11 11 11 12 12 12 13 14 14 14 15 17 18 18 16 16 16 15 13 15 17 19 19 19 19 18 18 19 21 21 20 19 21 23 23 22 22 22 22 24 26 28 29
11 11 11 11 11 11 11 11 12 12 13 14 14 15 15 17 17 16 16 15 15 15 12 17 18 19 19 19 18 20 19 19 21 21 21 20 23 23 22 22 22 19 23 25 25 26 25
10 10 10 10 10 10 11 11 12 12 12 14 14 15 15 16 15 14 16 16 15 15 16 19 17 20 18 17 18 18 20 18 18 18 20 21 22 22 22 23 23 23 24 24 25 24 25
10 10 10 10 10 10 10 11 11 11 12 13 14 15 15 15 14 16 16 16 16 14 15 17 17 17 16 16 17 17 17 16 16 15 18 20 22 23 24 25 25 25 25 23 24 22 23
10 10 10 9 10 10 10 10 10 11 12 13 14 15 16 15 14 15 16 13 13 14 17 16 15 15 15 14 14 15 14 12 12 14 13 16 19 23 24 23 24 24 23 19 20 20 23
9 9 9 9 9 9 10 9 9 10 11 12 14 15 15 14 15 16 15 13 15 16 16 16 15 15 15 14 14 14 13 12 12 11 11 11 18 22 23 22 23 23 22 19 19 20 24
9 9 9 9 9 9 9 9 9 10 10 11 13 14 15 14 16 16 12 11 13 15 15 15 14 14 13 14 14 13 12 12 12 11 11 10 13 15 19 21 24 23 23 22 21 20 20
9 9 9 9 9 9 8 8 8 9 9 10 10 9 13 14 16 15 11 12 13 14 15 15 14 14 13 13 13 12 13 14 11 12 11 12 11 14 17 20 23 24 24 22 19 22 21
8 9 9 9 9 9 8 7 7 8 9 10 8 7 14 14 14 9 11 10 13 14 15 14 12 13 12 13 12 11 13 14 13 12 11 10 11 13 15 18 22 23 24 24 23 20 23
9 8 9 9 9 8 8 7 7 7 8 8 5 9 13 14 9 5 8 8 11 14 14 14 13 12 12 12 12 11 12 13 12 12 11 11 10 11 13 16 17 16 22 22 24 22 19
8 8 8 8 9 8 7 7 7 7 7 6 5 5 12 13 7 6 6 9 11 13 13 13 13 13 13 12 11 11 12 13 12 11 10 10 10 12 13 17 17 18 22 23 21 24 24
8 8 8 8 8 7 7 7 7 7 7 7 5 6 6 5 5 7 7 8 10 14 13 13 13 13 12 11 10 11 11 12 12 11 13 11 10 10 11 15 13 13 15 22 21 24 24
7 7 7 8 7 7 7 7 7 7 7 7 3 5 6 6 6 7 7 7 9 11 12 12 12 11 10 9 10 9 10 11 11 12 10 9 10 10 11 11 11 12 14 16 17 20 24
8 7 7 7 7 7 7 7 7 7 8 7 6 6 5 7 7 8 7 8 8 9 8 10 9 11 9 8 10 10 10 10 10 9 10 9 9 10 9 12 12 13 16 17 17 20 23
8 8 7 7 7 7 7 7 7 7 7 7 6 6 7 8 8 8 8 8 8 8 8 9 9 9 9 9 10 9 9 9 9 9 9 8 9 9 9 14 15 15 17 18 19 18 19
8 7 6 7 7 7 7 7 7 7 7 7 7 7 7 8 8 8 8 8 8 8 8 8 8 8 9 10 8 9 7 8 9 9 9 8 8 9 9 12 17 16 17 20 19 18 18
8 7 6 7 6 7 7 7 8 8 7 7 7 7 7 7 7 8 8 8 8 8 8 8 9 10 8 8 8 6 7 9 8 10 11 10 8 9 9 12 18 18 16 15 15 18 17
8 7 7 6 6 6 7 7 8 8 7 7 7 7 6 7 8 8 8 8 8 7 8 9 9 9 9 8 8 9 8 10 10 10 11 9 8 9 10 12 17 14 15 15 16 16 17
8 7 7 7 6 7 7 7 8 8 7 7 7 7 6 6 7 7 8 8 8 7 7 7 9 7 8 7 8 9 9 8 10 10 9 9 9 9 10 12 15 13 14 15 17 15 15
7 7 7 7 7 7 7 7 8 8 8 8 8 7 7 6 7 7 8 8 8 7 7 8 7 8 7 8 8 8 9 9 9 9 9 10 11 12 12 15 16 13 14 14 13 15 14
7 7 7 7 7 7 8 8 8 8 8 8 8 8 7 7 7 7 7 8 7 8 8 7 7 8 8 8 8 8 9 8 9 10 9 10 9 10 10 11 10 12 11 12 13 13 13

GFSGBSN_925_temp_045.txt.gz
Temp
8 8 8 11 12 12 13 13 14 14 14 14 15 16 16 17 18 18 18 18 19 19 18 17 17 12 12 18 21 20 20 18 18 20 22 24 24 25 26 26 25 26 27 28 28 29 29
8 9 10 12 12 12 13 13 13 14 14 14 15 16 16 17 18 18 18 18 19 19 17 17 15 13 14 22 20 20 19 18 20 21 23 24 25 26 26 25 26 28 27 28 29 29 30
10 11 12 12 12 12 13 13 13 14 14 14 15 16 16 17 18 18 18 19 19 18 16 16 13 12 17 21 21 21 20 19 19 21 24 23 25 26 26 27 27 27 27 28 29 30 29
12 11 11 11 12 12 13 13 13 13 13 13 14 15 16 17 17 18 18 19 18 17 16 14 12 13 21 21 21 21 20 19 19 20 23 23 24 26 26 27 27 27 28 26 29 29 30
11 11 11 11 11 12 12 12 13 13 13 13 14 15 16 17 17 18 19 18 17 16 14 12 13 14 22 22 22 21 21 21 20 20 22 24 25 25 26 26 27 26 29 27 30 30 31
11 11 11 11 11 11 12 12 13 13 13 13 14 15 16 16 17 18 17 16 16 15 13 12 14 19 22 21 21 21 21 21 22 22 23 24 25 25 25 26 26 27 28 28 30 31 31
11 11 11 11 11 11 11 12 12 13 14 13 14 14 15 16 18 18 16 15 18 19 17 19 19 19 21 21 21 22 20 22 22 23 23 23 24 24 25 25 27 27 27 29 29 31 31
11 11 11 11 11 11 11 12 12 13 13 13 13 13 15 17 18 18 18 18 16 15 18 17 18 19 20 19 21 22 21 23 23 23 22 22 23 25 25 25 25 26 26 27 29 29 31
11 11 11 11 11 11 11 11 12 12 12 12 13 14 16 17 18 17 16 15 14 14 17 19 19 21 21 21 20 20 21 21 23 22 23 24 25 25 24 24 24 25 26 27 27 29 30
11 11 11 10 10 10 11 11 11 11 12 13 13 14 15 17 17 15 15 14 14 14 19 19 20 20 21 20 20 21 20 20 22 23 23 23 25 24 24 25 25 25 26 26 27 27 29
10 10 10 10 10 10 10 10 11 11 12 13 13 14 14 15 15 16 15 15 15 16 20 20 19 20 20 20 20 20 19 20 20 21 21 24 24 24 24 25 25 25 26 26 27 27 27
10 10 10 10 10 10 10 10 11 11 11 12 12 14 15 15 15 15 14 15 16 19 19 18 19 18 18 18 18 19 17 18 18 19 20 22 22 24 26 26 25 26 26 26 27 27 26
10 10 10 9 10 9 9 10 10 10 10 12 13 14 15 14 14 15 15 16 18 18 18 17 17 18 17 17 17 17 15 16 17 20 19 20 22 24 26 25 26 26 25 25 25 25 26
9 9 9 9 9 9 9 9 9 9 10 11 13 14 14 14 14 15 15 19 17 17 17 17 17 17 17 17 16 16 16 16 15 16 17 18 23 21 19 25 26 25 26 25 24 26 28
9 9 9 9 9 9 9 8 8 9 9 10 12 13 13 13 15 15 18 17 18 17 17 17 16 16 16 16 17 16 16 15 14 14 17 16 17 19 20 20 21 26 25 28 27 25 27
8 8 9 9 8 8 8 8 8 8 9 10 9 9 12 13 14 15 17 15 16 16 16 16 16 16 16 16 16 16 15 15 14 14 15 14 16 17 18 19 23 23 27 25 26 24 25
8 8 9 9 8 8 7 8 7 7 8 9 8 14 13 14 14 16 16 15 15 16 16 16 16 16 16 15 16 15 16 15 14 13 14 14 15 17 17 19 23 25 24 26 27 27 27
8 8 9 9 8 7 7 7 7 7 7 7 6 15 13 14 15 11 13 11 11 15 15 16 15 16 15 15 15 15 15 16 15 14 14 14 12 12 16 18 19 19 18 25 26 25 27
8 8 8 8 8 7 7 7 7 7 7 6 8 8 12 12 13 11 10 11 12 14 14 15 15 15 15 15 14 14 14 15 14 14 13 13 12 14 17 20 20 19 20 20 26 27 26
7 7 8 7 7 7 7 7 7 7 7 7 9 12 12 11 9 8 8 10 11 13 14 13 13 14 14 14 13 14 14 13 14 14 13 13 12 13 15 17 17 15 18 18 22 26 26
8 8 7 7 7 7 7 7 7 8 8 7 8 8 7 10 10 8 8 9 10 11 12 12 12 12 11 11 12 12 13 14 13 14 13 12 11 13 13 14 14 14 15 16 17 22 26
9 8 7 7 7 7 7 7 7 8 8 7 9 9 7 9 8 8 8 9 9 9 9 9 10 11 9 9 12 12 13 13 14 13 12 11 12 12 12 15 14 14 16 16 17 19 23
9 7 7 6 7 7 7 8 8 7 8 8 6 6 7 8 9 8 9 8 8 9 8 9 9 6 8 8 9 11 12 12 13 13 13 10 10 11 13 15 15 15 17 18 19 22 24
9 7 7 6 7 7 7 7 8 7 7 7 7 7 7 8 8 8 8 9 9 8 8 9 9 8 9 11 11 11 12 12 12 12 13 10 9 10 12 12 13 19 21 21 21 19 21
8 7 7 7 7 7 7 8 8 7 7 7 7 7 7 8 8 8 9 9 9 8 9 9 10 11 11 10 9 10 9 9 11 12 13 12 9 10 10 12 13 18 19 21 22 18 18
8 7 7 7 7 7 7 7 8 8 8 7 7 7 7 7 8 9 8 9 8 8 8 10 11 11 10 9 9 9 10 10 12 12 12 11 10 9 10 11 14 15 16 17 18 19 16
7 7 7 7 7 7 7 8 8 8 8 8 7 7 7 7 8 8 8 8 9 7 7 8 9 10 9 8 9 10 10 8 10 10 9 9 9 9 10 10 10 13 15 17 19 17 15
8 7 7 7 7 7 8 8 8 8 8 8 7 8 7 7 10 9 8 8 9 8 7 8 10 8 8 8 9 9 9 9 10 9 9 9 10 10 10 10 11 11 15 16 15 14 14
9 7 7 7 7 7 8 8 9 9 8 8 8 7 7 7 9 8 8 8 7 8 8 8 9 8 8 8 8 8 9 9 9 11 9 10 8 10 9 10 8 11 13 14 14 13 13

GFSGBSN_925_temp_048.txt.gz
Temp
11 12 12 12 12 13 13 13 13 13 14 14 15 16 16 17 18 17 17 18 18 19 18 17 17 15 14 23 25 22 20 18 21 23 26 28 28 30 30 31 31 30 32 31 30 32 33
11 11 12 12 12 13 13 13 13 13 13 14 15 16 16 17 17 17 18 18 19 19 17 17 16 15 20 26 22 22 21 21 23 25 26 28 29 31 30 30 31 33 32 31 31 33 33
12 12 12 12 12 12 13 12 13 13 13 14 15 16 16 17 16 17 18 19 19 18 18 16 14 15 26 24 22 22 22 23 24 25 28 28 29 30 31 30 31 32 31 32 32 31 33
11 11 11 12 12 12 13 13 13 13 13 13 14 15 16 17 17 18 18 19 18 17 17 16 15 18 25 23 23 24 23 23 23 25 27 27 27 30 30 31 31 31 32 32 34 33 34
12 12 12 12 12 12 12 12 13 13 13 13 14 15 16 17 17 18 17 18 17 17 16 14 18 21 26 24 25 24 23 25 24 24 26 26 28 29 30 30 31 32 32 32 34 34 34
12 12 12 11 12 12 12 12 12 13 13 13 14 15 16 17 18 18 16 17 17 15 15 16 18 24 25 24 24 24 23 24 25 26 26 27 28 28 29 30 31 32 32 34 33 34 34
12 11 11 11 11 11 11 11 12 12 13 13 14 14 15 16 18 18 16 17 22 24 24 23 24 24 25 24 24 25 24 25 26 26 26 27 27 28 30 30 32 31 33 33 34 35 33
11 12 12 12 11 11 12 12 12 12 12 13 13 14 15 16 18 18 19 22 19 19 23 22 22 24 24 23 25 25 25 26 26 26 27 27 27 30 30 30 30 30 30 32 34 34 34
11 11 11 11 10 10 10 11 11 11 11 12 12 14 15 17 18 18 19 18 16 17 23 23 23 24 24 25 24 24 25 25 26 27 27 28 30 30 29 28 28 29 30 31 32 32 33
11 10 10 10 10 10 10 10 11 10 12 12 12 14 15 17 18 18 20 17 17 17 24 23 23 23 24 24 24 24 23 24 26 27 27 28 30 28 28 28 29 29 31 30 31 31 31
10 10 10 10 9 10 10 10 11 11 11 12 12 13 15 16 16 21 17 17 17 19 24 22 23 23 24 24 23 23 22 25 26 26 26 28 27 28 27 28 30 29 31 30 30 30 31
9 9 9 9 9 10 10 10 10 10 11 12 12 13 15 15 16 17 16 17 18 23 23 22 22 22 23 23 22 23 23 23 23 24 25 27 27 27 29 29 29 29 29 29 30 30 30
9 8 9 9 9 10 10 9 9 9 10 11 13 14 15 14 19 16 16 20 23 23 22 21 22 22 22 21 21 22 22 23 24 24 25 26 26 27 28 28 30 29 29 28 28 29 30
8 8 9 9 9 10 9 8 8 9 9 10 13 13 14 14 16 16 18 22 21 22 22 21 21 21 21 21 21 20 21 23 21 23 25 26 26 26 24 27 29 28 29 30 28 31 32
8 8 9 9 9 9 8 8 7 8 9 9 12 14 17 16 15 16 22 21 22 21 21 21 21 21 21 20 20 20 20 21 20 21 23 24 25 24 24 24 26 28 28 31 31 32 33
8 8 8 9 9 9 8 7 7 7 8 9 12 16 17 15 15 18 21 19 20 20 20 20 20 20 20 21 19 20 20 20 19 19 20 21 22 23 23 24 25 26 31 29 29 27 29
8 8 8 8 8 7 7 7 7 7 9 10 14 19 17 15 16 21 20 20 19 20 19 19 19 20 20 20 19 20 20 19 19 18 19 20 20 22 22 24 27 27 26 27 30 30 29
8 9 7 7 7 7 7 7 7 7 8 12 16 20 16 16 20 19 19 16 13 18 19 19 18 19 19 19 19 19 19 20 19 19 18 19 19 19 22 25 24 24 24 27 28 27 30
7 8 7 7 7 7 7 7 7 8 8 10 16 17 16 18 18 18 16 16 15 17 17 17 17 18 19 18 17 18 18 19 18 18 18 18 18 18 22 23 23 22 25 25 26 27 27
8 7 7 7 7 7 7 8 8 8 8 10 16 18 17 16 14 12 12 14 15 16 16 16 16 17 16 17 18 17 17 17 17 18 16 16 18 18 20 22 21 20 21 24 25 25 27
8 7 7 7 7 7 8 8 8 8 9 10 15 14 13 13 13 13 13 13 12 12 15 15 15 15 14 13 15 16 16 16 16 17 16 16 14 17 18 18 19 19 20 21 21 22 23
8 7 7 7 7 7 8 8 8 9 9 13 14 13 11 11 10 13 12 13 12 11 10 12 12 13 11 10 14 14 14 15 16 16 15 16 15 16 17 18 18 18 20 21 21 21 22
8 7 7 7 7 7 8 8 8 9 9 12 9 8 10 9 11 11 11 9 10 10 11 11 11 9 8 9 10 10 14 13 12 14 14 14 14 15 15 18 19 18 19 20 21 22 22
8 7 7 7 7 7 8 8 8 8 8 9 8 7 9 12 12 11 10 12 11 11 10 12 12 11 13 14 14 14 14 14 15 15 17 14 13 13 15 17 15 19 21 22 22 23 23
8 7 7 7 7 8 8 8 8 8 8 8 7 8 9 9 10 11 10 11 12 11 11 13 13 13 14 13 10 10 14 14 15 16 15 15 12 12 12 14 16 17 19 21 22 23 23
7 7 7 7 7 8 8 8 8 8 8 8 8 8 8 9 11 10 9 11 10 10 11 13 14 14 12 10 10 11 12 12 13 14 17 14 13 11 13 12 13 17 11 12 17 20 22
8 7 7 7 8 8 8 8 8 8 8 9 9 8 7 10 14 12 10 9 10 10 9 11 13 12 11 9 10 11 11 9 10 11 12 13 11 11 12 12 14 15 12 11 13 20 20
9 7 7 7 8 8 8 8 9 9 9 8 9 8 8 10 13 13 12 11 9 10 9 10 13 11 8 9 10 10 10 10 9 9 11 11 11 11 11 11 11 11 9 11 15 15 14
11 8 7 7 7 8 8 8 9 9 9 8 9 8 8 7 14 12 12 12 11 10 9 11 11 11 9 8 9 8 9 10 9 11 8 10 10 10 9 11 10 8 8 11 13 12 12